Regional Weather Roundup
Issued by NWS New Orleans/Baton Rouge, LA

Home | Current Version | Previous Version | Text Only | Print | Product List | Glossary Off
Versions: 1 2 3 4 5 6 7 8 9 10 11 12 13 14 15 16 17 18 19 20 21 22 23 24 25 26 27 28 29 30 31 32 33 34 35 36 37 38 39 40 41 42 43 44 45 46 47 48 49 50

527
ASUS44 KLIX 200301
RWRLIX
NEW ORLEANS REGIONAL WEATHER ROUNDUP
NATIONAL WEATHER SERVICE NEW ORLEANS LA
900 PM CST FRI DEC 19 2014

NOTE: "FAIR" INDICATES FEW OR NO CLOUDS BELOW 12,000 FEET WITH NO
      SIGNIFICANT WEATHER AND/OR OBSTRUCTIONS TO VISIBILITY.
      SKY/WX - SKY CONDITION AND SIGNIFICANT WEATHER.
      TMP - AIR TEMPERATURE.     DP    - DEWPOINT TEMPERATURE.
      RH  - RELATIVE HUMIDITY.   PRES  - PRESSURE.
      HI  - HEAT INDEX.          WCI   - WIND CHILL INDEX.

*  THESE STATIONS ARE NOT NWS OR FAA STATIONS AND ARE NOT UNDER
   NWS QUALITY CONTROL.

LAZ038-040-048-061>063-065>067-069-200400-
SOUTHEAST LOUISIANA

CITY           SKY/WX    TMP DP  RH WIND       PRES   REMARKS
N.O. AUDUBON     N/A     50  49  99 MISG        N/A
N.O. INTL ARPT LGT RAIN  51  48  89 NE13      30.09S FOG
N.O. LAKEFRONT LGT RAIN  52  48  86 NE16      30.10F
N.O. DOWNTOWN* CLOUDY    52  45  76 NE5       30.09F
SLIDELL        LGT RAIN  49  46  90 NE8       30.10S
BATON ROUGE    CLOUDY    49  46  90 NE6       30.10R
BOOTHVILLE     CLOUDY    59  58  96 NE10      30.05R
BELLE CHASSE   LGT RAIN  51  50  96 NE13G20   30.07F FOG
BOGALUSA*      RAIN      49  46  90 E6        30.13F
GALLIANO*      NOT AVBL
NEW ROADS*     NOT AVBL
GONZALES*      NOT AVBL
HAMMOND*       NOT AVBL
HOUMA*         RAIN      51  50  97 NE13      30.07R
PORT FOURCHON* CLOUDY    59  57  94 NE13G21   30.07S

$$

MSZ070-080>082-200400-
SOUTHERN MISSISSIPPI

CITY           SKY/WX    TMP DP  RH WIND       PRES   REMARKS
MCCOMB         LGT RAIN  46  44  93 E8        30.11S FOG
GULFPORT       CLOUDY    48  46  93 NE10      30.10R
BILOXI         CLOUDY    48  48 100 NE10      30.10R
PASCAGOULA     CLOUDY    48  47  96 NE7       30.11S

$$

COASTAL OBSERVATIONS
LAKE AND NEARSHORE STATIONS

STATION/POSITION TIME  TEMP    WIND        PRES    WAVE
                       AIR SEA DIR/SP/G            HT/PER
                 (UTC) (F)     (DEG/KT/KT) (MB)    (FT/S)
PASCAGOULA       0200   49      40/ 10/ 13 1018.7
WAVELAND YACHT   0200   49      50/ 11/ 14 1018.3
GRAND ISLE       0200   58 62   60/ 13/ 17 1017.4
SOUTHWEST PASS   0200   59                 1016.9
NEW CANAL        0200   51 57   40/ 16/ 18 1019.0
SHELL BEACH      0200   53 58   50/ 19/ 23 1018.2

OFFSHORE STATIONS

STATION/POSITION TIME  TEMP    WIND        PRES    WAVE
                       AIR SEA DIR/SP/G            HT/PER
                 (UTC) (F)     (DEG/KT/KT) (MB)    (FT/S)
64 S DAUPHIN ISL 0300   66 75  110/ 19/ 21 1016.9    4/ 5

$$




USA.gov is the U.S. government's official web portal to all federal, state and local government web resources and services.